Fes-Sais, Morocco

4:52 PM WEST on April 20, 2018 (GMT +0100)
Fes-Sais

Weather History for GMFF - August, 2014

Change the Weather History Date:

Wednesday, August 13, 2014

  Actual Average Record
Temperature  
Mean Temperature 76 °F -  
Max Temperature 93 °F 88 °F 107 °F (2013)
Min Temperature 59 °F 61 °F 59 °F (2007)
Cooling Degree Days 11    
Growing Degree Days 26 (Base 50)    
Moisture  
Dew Point 55 °F    
Average Humidity 48    
Maximum Humidity 73    
Minimum Humidity 13    
Precipitation  
Precipitation 0.00 in 0.01 in - ()
Sea Level Pressure  
Sea Level Pressure 30.03 in    
Wind  
Wind Speed 6 mph ()    
Max Wind Speed 14 mph    
Max Gust Speed -    
Visibility 16.0 miles    
Events      
Averages and records for this station are not official NWS values.
T = Trace of Precipitation, MM = Missing Value Source: Averaged Metar Reports

Daily Weather History Graph

Daily Weather History Graph

Search for Another Location

Airport or City:

Astronomy

Aug. 13, 2014 Rise Set
Actual Time 6:40 AM WEST 8:09 PM WEST
Civil Twilight 6:13 AM WEST 8:35 PM WEST
Nautical Twilight 5:41 AM WEST 9:07 PM WEST
Astronomical Twilight 5:08 AM WEST 9:40 PM WEST
Moon 9:58 PM WEST (8/13) 9:40 AM WEST (8/13)
Length of Visible Light 14h 22m
Length of Day
13h 29m
Waning Gibbous, 89% of the Moon is Illuminated
Aug 13
Waning Gibbous
Aug 17
Last Quarter
Aug 25
New
Sep 2
First Quarter
Sep 9
Full

Hourly Weather History & Observations

Time (WEST) Temp. Heat Index Dew Point Humidity Pressure Visibility Wind Dir Wind Speed Gust Speed Precip Events Conditions
12:00 AM 71.6 °F - 59.0 °F 64% 30.12 in - West 5.8 mph - N/A   Clear
1:00 AM 70 °F - 59 °F 61% 30.07 in 16 mi West 4.6 mph - -   Partly Cloudy
1:00 AM 68.0 °F - 59.0 °F 73% 30.12 in - West 5.8 mph - N/A   Clear
2:00 AM 66.2 °F - 55.4 °F 68% 30.09 in - SW 4.6 mph - N/A   Clear
3:00 AM 66.2 °F - 55.4 °F 68% 30.06 in - South 4.6 mph - N/A   Clear
4:00 AM 64 °F - 54 °F 63% 30.05 in 18 mi South 4.6 mph - -   Partly Cloudy
4:00 AM 64.4 °F - 53.6 °F 68% 30.06 in - South 4.6 mph - N/A   Clear
5:00 AM 64.4 °F - 55.4 °F 73% 30.06 in - SE 4.6 mph - N/A   Clear
6:00 AM 62.6 °F - 53.6 °F 72% 30.06 in - SSE 6.9 mph - N/A   Clear
7:00 AM 60 °F - 53 °F 69% 30.05 in 14 mi South 4.6 mph - -  
7:00 AM 60.8 °F - 51.8 °F 72% 30.06 in - SSE 3.5 mph - N/A   Clear
8:00 AM 69.8 °F - 57.2 °F 64% 30.06 in - ESE 3.5 mph - N/A   Clear
9:00 AM 75.2 °F - 59.0 °F 57% 30.06 in - Calm Calm - N/A   Clear
10:00 AM 80 °F - 58 °F 37% 29.99 in 16 mi NW 2.3 mph - -  
10:00 AM 78.8 °F - 59.0 °F 51% 30.06 in - NNW 2.3 mph - N/A   Clear
11:00 AM 82.4 °F 81.7 °F 55.4 °F 39% 30.06 in - WNW 6.9 mph - N/A   Clear
1:00 PM 88 °F - 50 °F 18% 29.94 in 22 mi WNW 9.2 mph - -  
1:00 PM 87.8 °F - 50.0 °F 27% 30.06 in - NNW 9.2 mph - N/A   Clear
2:00 PM 91.4 °F - 50.0 °F 24% 30.04 in - NW 9.2 mph - N/A   Clear
3:00 PM 91.4 °F - 50.0 °F 24% 30.04 in - NNW 9.2 mph - N/A   Clear
4:00 PM 92 °F - 48 °F 13% 29.88 in 34 mi NW 10.4 mph - -  
4:00 PM 91.4 °F - 48.2 °F 23% 30.01 in - WNW 11.5 mph - N/A   Clear
5:00 PM 91.4 °F - 50.0 °F 24% 30.01 in - WNW 12.7 mph - N/A   Clear
6:00 PM 91.4 °F - 51.8 °F 26% 30.01 in - WNW 11.5 mph - N/A   Clear
7:00 PM 89 °F - 51 °F 17% 29.88 in 28 mi NW 10.4 mph - -  
7:00 PM 89.6 °F - 50.0 °F 26% 30.01 in - NW 11.5 mph - N/A   Clear
8:00 PM 84.2 °F 84.4 °F 60.8 °F 45% 30.01 in - WNW 13.8 mph - N/A   Clear
9:00 PM 78.8 °F - 60.8 °F 54% 30.04 in - West 12.7 mph - N/A   Clear
10:00 PM 76 °F - 61 °F 51% 29.99 in 25 mi WSW 6.9 mph - -  
10:00 PM 75.2 °F - 60.8 °F 61% 30.06 in - WSW 6.9 mph - N/A   Clear
11:00 PM 73.4 °F - 62.6 °F 69% 30.06 in - West 5.8 mph - N/A   Clear